Location: Burgberg
(50.1428°N, 11.0671°E)
Time: 15:58:24
(UTC+00:00)

Cosmos 2344 - Pass Details

Date: 26 January 2020
Orbit: 1255 x 2987 km, 63.3° (Epoch: 18 February)

Event Time Altitude Azimuth Distance (km) Brightness Sun altitude
Exits shadow 04:40:59 35° 264° (W) 1,936 4.0 -21.8°
Maximum altitude 04:44:10 58° 326° (NW) 1,527 3.7 -21.3°
Drops below altitude 10° 04:52:49 10° 45° (NE) 3,757 6.5 -19.9°
Sets 04:56:16 0° 49° (NE) 4,949 7.3 -19.4°
